Terminal Aerodrome Forecast
Issued by NWS Blacksburg, VA

Current Version | Previous Version | Graphics & Text | Print | Product List | Glossary On
Versions: 1 2 3 4 5 6 7 8 9 10 11 12 13 14 15 16 17 18 19 20 21 22 23 24 25 26 27 28 29 30 31 32 33 34 35 36 37 38 39 40 41 42 43 44 45 46 47 48 49 50
000
FTUS41 KRNK 150629 AAA
TAFBLF
TAF AMD
KBLF 150629Z 1506/1606 00000KT 1/4SM FG BKN007
      TEMPO 1508/1511 2SM BR OVC001
     FM151400 23005KT P6SM BKN015
     FM151800 27008KT P6SM BKN040
     FM160000 27004KT P6SM SCT040 BKN100=

USA.gov is the U.S. government's official web portal to all federal, state and local government web resources and services.